Location: Unspecified
(50.7693°N, 0.0000°E)
Time: 04:24:45
(UTC+00:00)

Vanguard 1 Rocket - Pass Details

Date: 20 June 2019
Orbit: 650 x 4226 km, 34.3° (Epoch: 12 October)

Event Time Altitude Azimuth Distance (km) Brightness Sun altitude
Rises 17:28:37 0° 226° (SW) 7,333 12.5 23.0°
Reaches altitude 10° 17:35:20 10° 216° (SW) 5,678 11.9 22.0°
Maximum altitude 17:46:35 25° 170° (S) 3,301 10.2 20.2°
Drops below altitude 10° 17:53:40 10° 119° (ESE) 3,465 9.9 19.2°
Sets 17:56:34 0° 105° (ESE) 4,067 10.1 18.7°
